Location: Observatory
(52.1446°N, 0.4624°W)
Time: 05:13:11
(UTC+01:00)

ISS - Pass Details

Date: 25 July 2021
Orbit: 419 x 421 km, 51.6° (Epoch: 03 August)

Event Time Altitude Azimuth Distance (km) Brightness Sun altitude
Rises 23:41:03 0° 281° (W) 2,374 0.5 -15.9°
Reaches altitude 10° 23:43:29 10° 265° (W) 1,506 -0.8 -16.1°
Enters shadow 23:45:50 20° 221° (SW) 1,026 -2.1 -16.2°
